Flag for Canada Weather past 2 weeks in Cranbrook, British Columbia, Canada

Now
46 °F

Passing clouds.


Feels Like: 46 °F
Forecast: 43 / 69 °F
Wind: 2 mph from Southwest

Location: Cranbrook

Current Time: Sep 1, 2014 at 8:04:58 AM

Latest Report: Sep 1, 2014 at 7:00 AM


Visibility: 25 mi

Pressure: 29.99 "Hg

Humidity: 82%

Dew point: 41 °F

Location of CranbrookLocation

Historic Weather in Cranbrook — Graph

°F

Cranbrook temperature yesterday

Maximum temperature yesterday: 70 °F (at 3:00 PM)
Minimum temperature yesterday: 43 °F (at 7:00 AM)
Average temperature yesterday: 57 °F

Past Weeks' High & Low Weather Summary

 TemperatureHumidityPressure
High86 °F (Aug 18, 5:00 PM)100% (Aug 20, 10:00 AM)30.25 "Hg (Aug 20, 10:00 AM)
Low43 °F (Aug 24, 6:00 AM)20% (Aug 18, 7:00 PM)29.71 "Hg (Aug 19, 3:00 PM)
Average61 °F65%29.98 "Hg
* Reported Aug 17 7:00 AM — Sep 1 7:00 AM, Cranbrook, Weather by CustomWeather, © 2014

Note: Actual official high and low records may vary slightly from our data, if they occured in-between our weather recording intervals... More about our weather records

Advertising

Cranbrook weather history for previous 24 hours

 ConditionsComfort  
Time TempWeatherWind HumidityBarometerVisibility
7:00 AM
Sep 1
46 °FPassing clouds.2 mph82%29.99 "Hg25 mi
6:00 AM46 °FPassing clouds.No wind82%29.97 "Hg25 mi
5:00 AM50 °FPassing clouds.No wind71%29.96 "Hg25 mi
4:00 AM50 °FPassing clouds.No wind71%29.96 "Hg25 mi
3:00 AM52 °FPassing clouds.5 mph67%29.95 "Hg25 mi
2:00 AM54 °FPassing clouds.5 mph58%29.95 "Hg25 mi
1:00 AM52 °FPassing clouds.2 mph62%29.94 "Hg25 mi
12:00 AM54 °FPassing clouds.No wind58%29.93 "Hg25 mi
11:00 PM
Aug 31
55 °FPassing clouds.3 mph55%29.93 "Hg25 mi
10:00 PM57 °FPassing clouds.5 mph48%29.93 "Hg25 mi
9:00 PM61 °FBroken clouds.5 mph42%29.92 "Hg25 mi
8:00 PM63 °FBroken clouds.10 mph39%29.90 "Hg25 mi
7:00 PM64 °FBroken clouds.9 mph34%29.88 "Hg25 mi
6:00 PM70 °FBroken clouds.5 mph27%29.85 "Hg25 mi
5:00 PM70 °FBroken clouds.9 mph25%29.84 "Hg25 mi
4:00 PM68 °FBroken clouds.9 mph30%29.86 "Hg25 mi
3:00 PM70 °FPartly sunny.6 mph33%29.85 "Hg25 mi
2:00 PM64 °FBroken clouds.5 mph43%29.87 "Hg25 mi
1:00 PM64 °FBroken clouds.8 mph43%29.88 "Hg25 mi
12:00 PM61 °FPassing clouds.7 mph52%29.90 "Hg25 mi
11:00 AM57 °FPassing clouds.3 mph59%29.92 "Hg25 mi
10:00 AM54 °FPassing clouds.3 mph67%29.93 "Hg25 mi
9:00 AM48 °FPassing clouds.No wind82%29.93 "Hg25 mi
8:00 AM45 °FPassing clouds.No wind87%29.92 "Hg25 mi
Weather by CustomWeather, © 2014

See weather overviewHow to use our weather pages